Weather History for Oshkosh, WI

Change the Weather History Date:

Thursday, November 1, 2012

  Actual Average Record
Temperature  
Mean Temperature 37 °F -  
Max Temperature 48 °F 53 °F 76 °F (1950)
Min Temperature 28 °F 37 °F 12 °F (1951)
Degree Days  
Heating Degree Days 28    
Moisture  
Dew Point 24 °F    
Average Humidity 56    
Maximum Humidity 73    
Minimum Humidity 41    
Precipitation  
Precipitation 0.00 in - - ()
Sea Level Pressure  
Sea Level Pressure 29.88 in    
Wind  
Wind Speed 8 mph (NW)    
Max Wind Speed 16 mph    
Max Gust Speed 24 mph    
Visibility 10 miles    
Events      
Averages and records for this station are not official NWS values.
T = Trace of Precipitation, MM = Missing Value Source: NWS Daily Summary

Daily Weather History Graph

Daily Weather History Graph

Search for Another Location

Airport:

Trip Planner

Search our weather history database for the weather conditions in past years. The results will help you decide how hot, cold, wet, or windy it might be!

Date:

Astronomy

Nov. 01, 2012 Rise Set
Actual Time 7:31 AM CDT 5:43 PM CDT
Civil Twilight 7:01 AM CDT 6:13 PM CDT
Nautical Twilight 6:27 AM CDT 6:47 PM CDT
Astronomical Twilight 5:53 AM CDT 7:21 PM CDT
Moon 7:36 PM CDT (11/1) 10:08 AM CDT (11/1)
Length of Visible Light 11h 12m
Length of Day
10h 12m
Waning Gibbous, 93% of the Moon is Illuminated
Nov 1
Waning Gibbous
Nov 6
Last Quarter
Nov 13
New
Nov 20
First Quarter
Nov 28
Full

Hourly Weather History & Observations

Time (CDT) Temp. Windchill Dew Point Humidity Pressure Visibility Wind Dir Wind Speed Gust Speed Precip Events Conditions
12:53 AM 28.9 °F 22.8 °F 16.0 °F 58% 29.87 in 10.0 mi West 5.8 mph - N/A   Clear
1:53 AM 30.0 °F 24.1 °F 15.1 °F 54% 29.87 in 10.0 mi West 5.8 mph - N/A   Clear
2:53 AM 30.0 °F 26.5 °F 15.1 °F 54% 29.86 in 10.0 mi West 3.5 mph - N/A   Mostly Cloudy
3:53 AM 33.1 °F 28.7 °F 17.1 °F 52% 29.84 in 10.0 mi West 4.6 mph - N/A   Overcast
4:53 AM 36.0 °F 31.1 °F 18.0 °F 48% 29.84 in 10.0 mi WNW 5.8 mph - N/A   Overcast
5:53 AM 36.0 °F 33.3 °F 18.0 °F 48% 29.84 in 10.0 mi West 3.5 mph - N/A   Overcast
6:53 AM 35.1 °F 28.6 °F 18.0 °F 50% 29.86 in 10.0 mi WNW 8.1 mph - N/A   Mostly Cloudy
7:53 AM 35.1 °F 28.6 °F 19.0 °F 52% 29.87 in 10.0 mi West 8.1 mph - N/A   Overcast
8:53 AM 37.0 °F 31.0 °F 18.0 °F 46% 29.88 in 10.0 mi WNW 8.1 mph - N/A   Mostly Cloudy
9:53 AM 41.0 °F 34.7 °F 19.0 °F 41% 29.88 in 10.0 mi NW 10.4 mph - N/A   Overcast
10:53 AM 42.1 °F 37.1 °F 21.0 °F 43% 29.87 in 10.0 mi NNW 8.1 mph - N/A   Overcast
11:53 AM 43.0 °F 37.2 °F 24.1 °F 47% 29.87 in 10.0 mi NNW 10.4 mph - N/A   Overcast
12:53 PM 44.1 °F 38.6 °F 25.0 °F 47% 29.86 in 10.0 mi NW 10.4 mph - N/A   Overcast
1:53 PM 46.0 °F 40.6 °F 28.9 °F 51% 29.85 in 10.0 mi NW 11.5 mph - N/A   Overcast
2:53 PM 46.0 °F 39.3 °F 30.9 °F 56% 29.84 in 10.0 mi NW 16.1 mph 24.2 mph N/A   Overcast
3:53 PM 46.0 °F 40.2 °F 30.0 °F 54% 29.86 in 10.0 mi NW 12.7 mph 20.7 mph N/A   Overcast
4:53 PM 44.1 °F 39.5 °F 30.0 °F 58% 29.86 in 10.0 mi NNW 8.1 mph - N/A   Overcast
5:53 PM 44.1 °F 37.7 °F 28.9 °F 55% 29.88 in 10.0 mi NNW 12.7 mph - N/A   Overcast
6:53 PM 43.0 °F 38.2 °F 30.0 °F 60% 29.90 in 10.0 mi NW 8.1 mph - N/A   Overcast
7:53 PM 42.1 °F 34.9 °F 30.9 °F 65% 29.91 in 10.0 mi NNW 13.8 mph - N/A   Overcast
8:53 PM 41.0 °F 34.7 °F 30.9 °F 67% 29.93 in 10.0 mi NNW 10.4 mph - N/A   Overcast
9:26 PM 41.0 °F 33.5 °F 30.2 °F 65% 29.91 in 10.0 mi NNW 13.8 mph 19.6 mph N/A   Overcast
9:36 PM 39.2 °F 33.0 °F 30.2 °F 70% 29.91 in 10.0 mi North 9.2 mph - N/A   Mostly Cloudy
9:53 PM 39.0 °F 30.3 °F 28.0 °F 65% 29.94 in 10.0 mi North 16.1 mph - N/A   Scattered Clouds
10:53 PM 36.0 °F 28.5 °F 28.0 °F 73% 29.96 in 10.0 mi NNW 10.4 mph - N/A   Clear
11:53 PM 36.0 °F 28.0 °F 28.0 °F 73% 29.97 in 10.0 mi NNW 11.5 mph - N/A   Clear